Voltar ao catálogo

YAOGAN 24

AtivoMilitarSSO
NORAD 40310·PAYLOAD·🇨🇳 China

Lançado Nov 20, 2014 de Jiuquan Satellite Launch Center

Loading…

Próximas Passagens (próximas 24 horas)

TLE

AtualizadoSource: Space-Track

Época: Sep 14, 2026, 15:01 UTC

1 40310U 14072A   26257.62572616  .00000629  00000-0  98585-4 0  9995
2 40310  98.1621  35.7741 0014090 343.5588  16.5162 14.76181937636917

Acompanhe YAOGAN 24 em tempo real com AllMySat

Download on the App Store